Location: Newark
(7.0858°N, 171.3717°E)
Time: 04:00:29
(UTC+00:00)

A-11 Canister half - Pass Details

Date: 05 December 2020
Orbit: 1517 x 1683 km, 47.2° (Epoch: 16 January)

Event Time Altitude Azimuth Distance (km) Brightness Sun altitude
Rises 17:42:33 0° 187° (S) 4,654 11.7 -12.6°
Reaches altitude 10° 17:46:52 10° 170° (S) 3,680 11.4 -11.6°
Maximum altitude 17:52:48 19° 129° (SE) 3,073 11.7 -10.2°
Drops below altitude 10° 17:58:46 10° 89° (E) 3,731 12.3 -8.8°
Sets 18:03:08 0° 72° (ENE) 4,743 12.4 -7.8°
